Location: Barruelo
(41.2448°N, 3.8231°W)
Time: 16:29:25
(UTC+00:00)

Cosmos 1980 Rocket - Pass Details

Date: 11 December 2025
Orbit: 830 x 847 km, 71.0° (Epoch: 16 January)

Event Time Altitude Azimuth Distance (km) Brightness Sun altitude
Rises 19:52:19 0° 247° (WSW) 3,391 6.3 -34.1°
Reaches altitude 10° 19:55:30 10° 265° (W) 2,457 5.4 -34.7°
Maximum altitude 19:59:25 19° 310° (NW) 1,900 4.4 -35.4°
Enters shadow 20:01:12 17° 333° (NNW) 2,027 4.4 -35.7°
